DELTA 1 DEB, 1529

Orbit data source: Space-Track

DELTA 1 DEB, 1529 is space debris in SSO originally from a launch on Fri, 02 Jul 1965 UTC launched from the Air Force Eastern Test Range (AFETR). Debris objects in space refer to the collection of defunct objects orbiting the Earth. Examples of debris include non-operational satellites, rocket bodies, and fragments generated from explosions, collisions, or faulty payload assembly.

Loading next visibility...
Identifier
1529, 1965-051D
Orbit
SSO
Last TLE update
12 hours ago
Origin
Manufacturer
Unknown
Mission
Spacecraft
Bus & Motor
Unknown
Mass
1 kg wet, 1 kg dry
Launch date (UTC)
1965-07-02 (60 years ago)
Launch vehicle
Unknown
Launch site
Air Force Eastern Test Range (AFETR)
Object type
Payload
Rocket body
Debris
Shape & HBR
Cyl + 1 Cable, 3.5 m
Radar Cross Section
3.500 m², Small (<0.1 m²)

Expand to show TLE details & history

TLE from 12 hours ago
0 DELTA 1 DEB
1 01529U 65051D   25128.86180363  .00000246  00000-0  12677-3 0  9995
2 01529  99.0410 353.3168 0035283 307.9651  51.8341 14.24041501 97890
Epoch: 2025-05-08T20:40Z
Definitive object data (Epoch: 2025-05-08T20:40:59.833Z)
Latitude
-0°
Longitude
176.14128°
Altitude
799.003 km
Speed
7.462 km/s
True Right ascension
23h 33m 16s
True Declination
0° 00' 00"
Sunlit
Object was in daylight at TLE epoch
Visualization TLE readout
Latitude
-53.17741°
Longitude
-171.15981°
Altitude
806.946 km
Speed
7.462 km/s
Apparent Right ascension
02h 32m 01s
Apparent Declination
-50° 47' 59"
Sunlit
Object is in daylight
Visualization observer readout
Local Sidereal Time
16:23:16
Azimuth
128.63° SE
Elevation
-67.821°
Doppler factor
1
Orbital elements
Apogee altitude
834.244 km
Perigee altitude
783.528 km
Semi-major axis
7,187.023 km
Eccentricity
0.0035283
Inclination
99.041°
RAAN
353.3168°
Arg. of periapsis
307.9651°
True anomaly
52.15285°
Mean anomaly
51.8341°
Eccentric anomaly
51.99339°
Mean motion
3.56221 °/min
BSTAR
0.00012677
Orbital period
101.06 mins
Loading maneuver chart data...
Loading SW <> Apogee altitude chart data...
Loading historical data...
Loading historical data...
Loading historical data...
Loading historical data...
Loading historical data...
Loading historical data...
Loading historical data...
Other satellites on launch #51 in the year 1965 (1965-07-02 UTC)

DELTA 1 DEB Visibility forecast

Observer location: undefined°, undefined°

Span
Click to sort rows by Start time (UTC) header in descending order
Start Az.
Max El. time (UTC)
Max El. Az.
Max El.
End time (UTC)
End Az.
7 mins2025-05-09 13:42:08.709Z106.696° ESE2025-05-09 13:45:08.709Z68.224° E20.244°2025-05-09 13:49:08.709Z17.033° NNE
8 mins2025-05-09 15:21:08.709Z191.011° SSW2025-05-09 15:25:08.709Z267.554° W36.63°2025-05-09 15:29:08.709Z330.77° NNW
8 mins2025-05-10 03:38:08.709Z24.415° NE2025-05-10 03:42:08.709Z133.352° SE41.731°2025-05-10 03:46:08.709Z183.227° SSW
5 mins2025-05-10 05:19:08.709Z322.19° NNW2025-05-10 05:21:08.709Z296.329° NW16.34°2025-05-10 05:24:08.709Z261.604° W
|